Tracking 25620 objects as of 18-May-2022
HD Live streaming from Space Station
objects crossing your sky now

SL-8 R/B

Track SL-8 R/B now!
10-day predictions


NORAD ID: 12983
Int'l Code: 1981-116J
Perigee: 1,488.0 km
Apogee: 1,669.9 km
Inclination: 74.0 °
Period: 117.6 minutes
Semi major axis: 7949 km
RCS: 5.9807 m2 (large)
Launch date: November 28, 1981
Source: Commonwealth of Independent States (former USSR) (CIS)
Launch site: PLESETSK MISSILE AND SPACE COMPLEX (PKMTR)

Note: This is a ROCKET BODY
aabbcc
Your satellite tracking list
Your tracking list is empty




NASA's NSSDC Master Catalog

Two Line Element Set (TLE):
1 12983U 81116J   22138.70216718 -.00000011  00000-0  38047-4 0  9997
2 12983  73.9831 283.2790 0114425  20.3241 350.5020 12.24776434544149
Source of the keplerian elements: AFSPC